Grass Valley, CA

11:15 PM PDT on July 25, 2017 (GMT -0700)
Grass Valley

Weather History for KGOO - August, 2014

Change the Weather History Date:

Thursday, August 21, 2014

  Actual Average (KAUN) Record (KAUN)
Temperature  
Mean Temperature 73 °F -  
Max Temperature 80 °F 87 °F 110 °F (1950)
Min Temperature 66 °F 59 °F 49 °F (1959)
Cooling Degree Days 8    
Growing Degree Days 23 (Base 50)    
Moisture  
Dew Point 45 °F    
Average Humidity 37    
Maximum Humidity 49    
Minimum Humidity 24    
Precipitation  
Precipitation 0.00 in - - ()
Sea Level Pressure  
Sea Level Pressure 30.03 in    
Wind  
Wind Speed 4 mph (SSE)    
Max Wind Speed 9 mph    
Max Gust Speed -    
Visibility 10 miles    
Events      
Averages and records for this station are not official NWS values.
T = Trace of Precipitation, MM = Missing Value Source: NWS Daily Summary

Daily Weather History Graph

Daily Weather History Graph

Search for Another Location

Airport or City:

Trip Planner

Search our weather history database for the weather conditions in past years. The results will help you decide how hot, cold, wet, or windy it might be!

Date:

Astronomy

Aug. 21, 2014 Rise Set
Actual Time 6:22 AM PDT 7:50 PM PDT
Civil Twilight 5:54 AM PDT 8:18 PM PDT
Nautical Twilight 5:20 AM PDT 8:52 PM PDT
Astronomical Twilight 4:44 AM PDT 9:28 PM PDT
Moon 2:58 AM PDT (8/21) 5:22 PM PDT (8/21)
Length of Visible Light 14h 24m
Length of Day
13h 28m
Waning Crescent, 13% of the Moon is Illuminated
Aug 21
Waning Crescent
Aug 25
New
Sep 2
First Quarter
Sep 8
Full
Sep 15
Last Quarter

Hourly Weather History & Observations

Time (PDT) Temp. Dew Point Humidity Pressure Visibility Wind Dir Wind Speed Gust Speed Precip Events Conditions
12:20 AM 68.0 °F 41.0 °F 37% 30.01 in 10.0 mi East 5.8 mph - N/A   Clear
12:40 AM 68.0 °F 44.6 °F 43% 30.00 in 10.0 mi ESE 5.8 mph - N/A   Clear
1:00 AM 68.0 °F 44.6 °F 43% 30.01 in 10.0 mi East 5.8 mph - N/A   Clear
1:20 AM 68.0 °F 44.6 °F 43% 30.00 in 10.0 mi East 5.8 mph - N/A   Clear
1:40 AM 68.0 °F 46.4 °F 46% 30.00 in 10.0 mi East 3.5 mph - N/A   Clear
2:00 AM 68.0 °F 46.4 °F 46% 30.01 in 10.0 mi ESE 5.8 mph - N/A   Clear
2:20 AM 68.0 °F 46.4 °F 46% 30.00 in 10.0 mi ESE 4.6 mph - N/A   Clear
2:40 AM 68.0 °F 46.4 °F 46% 30.00 in 10.0 mi ESE 5.8 mph - N/A   Clear
3:00 AM 68.0 °F 46.4 °F 46% 30.00 in 10.0 mi ESE 5.8 mph - N/A   Clear
3:20 AM 68.0 °F 46.4 °F 46% 30.00 in 10.0 mi Calm Calm - N/A   Clear
3:40 AM 68.0 °F 46.4 °F 46% 30.00 in 10.0 mi ESE 3.5 mph - N/A   Clear
4:00 AM 68.0 °F 46.4 °F 46% 30.00 in 10.0 mi ESE 4.6 mph - N/A   Clear
4:20 AM 66.2 °F 46.4 °F 49% 30.00 in 10.0 mi Calm Calm - N/A   Clear
4:40 AM 66.2 °F 46.4 °F 49% 30.00 in 10.0 mi Calm Calm - N/A   Clear
5:00 AM 66.2 °F 46.4 °F 49% 30.00 in 10.0 mi East 4.6 mph - N/A   Clear
5:20 AM 66.2 °F 44.6 °F 46% 30.00 in 10.0 mi Calm Calm - N/A   Clear
5:40 AM 66.2 °F 44.6 °F 46% 30.00 in 10.0 mi Calm Calm - N/A   Clear
6:00 AM 66.2 °F 44.6 °F 46% 30.00 in 10.0 mi Calm Calm - N/A   Clear
6:20 AM 66.2 °F 44.6 °F 46% 30.00 in 10.0 mi Calm Calm - N/A   Clear
6:40 AM 66.2 °F 42.8 °F 43% 30.01 in 10.0 mi Calm Calm - N/A   Clear
7:00 AM 66.2 °F 42.8 °F 43% 30.02 in 10.0 mi Calm Calm - N/A   Clear
7:20 AM 68.0 °F 44.6 °F 43% 30.02 in 10.0 mi Calm Calm - N/A   Clear
7:40 AM 68.0 °F 44.6 °F 43% 30.03 in 10.0 mi Calm Calm - N/A   Clear
8:00 AM 69.8 °F 44.6 °F 40% 30.03 in 10.0 mi Calm Calm - N/A   Clear
8:20 AM 71.6 °F 44.6 °F 38% 30.04 in 10.0 mi Calm Calm - N/A   Clear
8:40 AM 71.6 °F 44.6 °F 38% 30.04 in 10.0 mi Calm Calm - N/A   Clear
9:00 AM 71.6 °F 44.6 °F 38% 30.04 in 10.0 mi SSE 3.5 mph - N/A   Clear
9:20 AM 71.6 °F 44.6 °F 38% 30.04 in 10.0 mi Calm Calm - N/A   Clear
9:40 AM 73.4 °F 44.6 °F 36% 30.05 in 10.0 mi Calm Calm - N/A   Clear
10:20 AM 75.2 °F 42.8 °F 31% 30.06 in 10.0 mi SSE 5.8 mph - N/A   Clear
10:40 AM 77.0 °F 44.6 °F 32% 30.06 in 10.0 mi SE 8.1 mph - N/A   Clear
11:00 AM 77.0 °F 44.6 °F 32% 30.06 in 10.0 mi SSE 5.8 mph - N/A   Clear
11:20 AM 77.0 °F 44.6 °F 32% 30.06 in 10.0 mi Calm Calm - N/A   Clear
11:40 AM 78.8 °F 44.6 °F 30% 30.06 in 10.0 mi South 5.8 mph - N/A   Clear
12:00 PM 78.8 °F 46.4 °F 32% 30.06 in 10.0 mi SW 4.6 mph - N/A   Clear
12:20 PM 78.8 °F 44.6 °F 30% 30.06 in 10.0 mi SW 8.1 mph - N/A   Clear
12:40 PM 78.8 °F 44.6 °F 30% 30.05 in 10.0 mi SSE 4.6 mph - N/A   Clear
1:00 PM 80.6 °F 44.6 °F 28% 30.05 in 10.0 mi South 4.6 mph - N/A   Clear
1:20 PM 80.6 °F 46.4 °F 30% 30.05 in 10.0 mi WSW 9.2 mph - N/A   Clear
1:40 PM 80.6 °F 48.2 °F 32% 30.06 in 10.0 mi SSW 4.6 mph - N/A   Clear
2:00 PM 80.6 °F 48.2 °F 32% 30.05 in 10.0 mi SSW 8.1 mph - N/A   Clear
2:20 PM 80.6 °F 46.4 °F 30% 30.05 in 10.0 mi SSW 5.8 mph - N/A   Clear
2:40 PM 80.6 °F 46.4 °F 30% 30.05 in 10.0 mi South 6.9 mph - N/A   Clear
3:00 PM 80.6 °F 44.6 °F 28% 30.05 in 10.0 mi SW 8.1 mph - N/A   Clear
3:20 PM 80.6 °F 44.6 °F 28% 30.05 in 10.0 mi WSW 8.1 mph - N/A   Clear
3:40 PM 80.6 °F 44.6 °F 28% 30.04 in 10.0 mi WSW 5.8 mph - N/A   Clear
4:00 PM 80.6 °F 42.8 °F 26% 30.04 in 10.0 mi SSE 4.6 mph - N/A   Clear
4:40 PM 80.6 °F 41.0 °F 24% 30.03 in 10.0 mi South 3.5 mph - N/A   Clear
5:00 PM 80.6 °F 41.0 °F 24% 30.03 in 10.0 mi South 3.5 mph - N/A   Clear
5:20 PM 80.6 °F 44.6 °F 28% 30.03 in 10.0 mi SSW 5.8 mph - N/A   Clear
5:40 PM 80.6 °F 44.6 °F 28% 30.03 in 10.0 mi SSW 4.6 mph - N/A   Clear
6:00 PM 80.6 °F 44.6 °F 28% 30.03 in 10.0 mi SW 6.9 mph - N/A   Clear
6:20 PM 80.6 °F 44.6 °F 28% 30.03 in 9.0 mi Calm Calm - N/A   Clear
6:40 PM 78.8 °F 44.6 °F 30% 30.03 in 10.0 mi Calm Calm - N/A   Clear
7:00 PM 77.0 °F 44.6 °F 32% 30.03 in 10.0 mi Calm Calm - N/A   Clear
7:20 PM 77.0 °F 44.6 °F 32% 30.02 in 10.0 mi Calm Calm - N/A   Clear
7:40 PM 75.2 °F 46.4 °F 36% 30.02 in 10.0 mi Calm Calm - N/A   Clear
8:00 PM 73.4 °F 46.4 °F 38% 30.03 in 10.0 mi Calm Calm - N/A   Clear
8:20 PM 73.4 °F 46.4 °F 38% 30.03 in 10.0 mi Calm Calm - N/A   Clear
8:40 PM 73.4 °F 46.4 °F 38% 30.03 in 10.0 mi Calm Calm - N/A   Clear
9:20 PM 71.6 °F 46.4 °F 41% 30.03 in 10.0 mi ESE 4.6 mph - N/A   Clear
9:40 PM 71.6 °F 46.4 °F 41% 30.03 in 10.0 mi ESE 4.6 mph - N/A   Clear
10:00 PM 71.6 °F 44.6 °F 38% 30.03 in 10.0 mi ESE 5.8 mph - N/A   Clear
10:20 PM 71.6 °F 44.6 °F 38% 30.03 in 10.0 mi ESE 5.8 mph - N/A   Clear
10:40 PM 71.6 °F 44.6 °F 38% 30.02 in 10.0 mi SE 5.8 mph - N/A   Clear
11:20 PM 68.0 °F 46.4 °F 46% 30.02 in 10.0 mi SE 3.5 mph - N/A   Clear
11:40 PM 66.2 °F 46.4 °F 49% 30.03 in 10.0 mi ESE 4.6 mph - N/A   Clear